EDT,Max TemperatureF,Mean TemperatureF,Min TemperatureF,Max Dew PointF,MeanDew PointF,Min DewpointF,Max Humidity, Mean Humidity, Min Humidity, Max Sea Level PressureIn, Mean Sea Level PressureIn, Min Sea Level PressureIn, Max VisibilityMiles, Mean VisibilityMiles, Min VisibilityMiles, Max Wind SpeedMPH, Mean Wind SpeedMPH, Max Gust SpeedMPH,PrecipitationIn, CloudCover, Events, WindDirDegrees
2013-4-1,82,70,57,63,59,55,94,73,42,30.03,30.00,29.95,10,10,10,17,5,26,0.00,,,238
2013-4-2,84,70,55,64,52,45,100,62,26,30.12,30.06,30.02,10,7,0,10,2,,0.00,,Fog,66
2013-4-3,84,70,57,66,60,48,100,75,45,30.12,30.04,29.98,10,10,0,16,5,21,0.60,,Rain,100
2013-4-4,73,70,66,70,66,63,100,86,69,30.02,29.96,29.89,10,9,2,15,7,25,0.06,,,172
2013-4-5,75,65,55,64,61,54,100,82,53,30.04,29.89,29.81,10,10,8,14,6,20,0.00,,,290
2013-4-6,75,63,51,57,53,48,94,71,47,30.17,30.09,30.03,10,10,10,13,7,20,0.00,,,25
2013-4-7,80,68,57,61,55,52,100,67,37,30.19,30.13,30.08,10,10,9,13,4,20,0.00,,,80
2013-4-8,82,70,57,63,57,52,100,64,35,30.16,30.12,30.07,10,10,3,15,5,17,0.00,,,111
2013-4-9,84,73,62,66,61,54,100,68,37,30.19,30.14,30.09,10,10,5,14,6,20,0.00,,,110
2013-4-10,86,72,57,70,61,57,100,71,37,30.15,30.07,29.99,10,10,7,13,6,17,0.00,,,111
2013-4-11,89,81,73,70,68,64,88,73,43,30.01,29.93,29.82,10,10,8,16,10,21,0.00,,,153
2013-4-12,82,76,71,72,71,68,94,84,65,29.92,29.87,29.82,10,10,5,16,9,23,0.00,,Rain,190
2013-4-13,87,76,66,70,60,45,100,68,25,30.01,29.95,29.89,10,8,5,10,2,,0.00,,,16
2013-4-14,87,76,64,70,64,55,94,75,55,30.01,29.95,29.86,10,10,5,20,6,32,0.07,,Rain,117
2013-4-15,87,76,64,64,63,61,94,63,43,30.11,30.01,29.90,10,10,8,12,5,,0.00,,,44
2013-4-16,87,76,66,68,66,64,100,75,48,30.18,30.13,30.08,10,8,3,16,8,18,0.00,,,61
2013-4-17,84,75,66,66,64,57,100,77,40,30.18,30.13,30.06,10,6,0,15,6,23,0.00,,Fog,46
2013-4-18,87,76,64,70,63,55,100,69,35,30.09,30.03,29.96,10,10,3,13,3,18,0.00,,,121
2013-4-19,89,79,69,73,69,64,100,76,46,30.03,29.98,29.91,10,9,2,17,8,25,0.41,,Rain,187
2013-4-20,75,65,55,70,57,54,100,90,77,30.19,30.09,29.98,10,9,3,14,7,24,0.30,,Rain,1
2013-4-21,75,66,57,66,62,54,100,84,73,30.18,30.12,30.06,10,9,2,14,8,21,0.64,,Rain,20
2013-4-22,73,68,62,66,63,59,100,92,73,30.12,30.08,30.03,10,8,2,15,8,21,0.00,,,10
2013-4-23,80,70,60,61,58,54,94,69,39,30.15,30.10,30.05,10,10,9,14,8,20,0.00,,,34
2013-4-24,84,70,55,63,56,50,100,67,32,30.17,30.13,30.08,10,9,0,12,4,,0.00,,Fog,74
2013-4-25,86,73,60,64,61,57,100,68,37,30.23,30.17,30.13,10,9,3,9,3,,0.00,,,264
2013-4-26,86,74,62,66,63,59,100,70,42,30.27,30.22,30.17,10,10,5,15,4,20,0.00,,,32
2013-4-27,84,74,64,66,62,55,100,72,39,30.26,30.19,30.12,10,10,9,14,6,22,0.00,,,56
2013-4-28,84,73,62,66,63,61,100,73,45,30.17,30.08,30.00,10,9,1,17,6,22,0.00,,,106
2013-4-29,84,75,66,66,63,59,88,68,48,30.04,30.00,29.92,10,10,10,13,5,17,0.00,,,183
2013-4-30,87,76,66,68,64,55,94,76,33,30.04,29.98,29.92,10,10,8,17,2,28,0.00,,Rain,88